DONNELLS (DON)

Elevation: 4835' · STANISLAUS R basin · Operator: US Bureau of Reclamation

Provisional data, subject to change.
Query executed Wednesday at 9:24:12   clock

Select a sensor type for a plot of data.
Note: Reservoir Flows are daily averages.

Earlier

Date STORAGE    RES CHG    OUTFLOW   
 AF   AF   CFS  
07/21/2014 63111 359 136
07/22/2014 63149 38 144
07/23/2014 63107 -42 141
07/24/2014 62835 -272 274
07/25/2014 62446 -389 292
07/26/2014 62480 34 263
07/27/2014 62092 -388 398
07/28/2014 61746 -346 287
07/29/2014 61377 -369 265
07/30/2014 60970 -407 295
07/31/2014 60638 -332 244
08/01/2014 60359 -279 230
08/02/2014 60094 -265 192
08/03/2014 59817 -277 205
08/04/2014 59653 -164 146
08/05/2014 59484 -169 187
08/06/2014 59307 -177 181
08/07/2014 59225 -82 159
08/08/2014 59062 -163 189
08/09/2014 58894 -168 154
08/10/2014 58690 -204 189
08/11/2014 58397 -293 225
08/12/2014 58133 -264 196
08/13/2014 57897 -236 188
08/14/2014 57723 -174 153
08/15/2014 57528 -195 179
08/16/2014 57366 -162 134
08/17/2014 57156 -210 183
08/18/2014 56913 -243 207
08/19/2014 56655 -258 172
08/20/2014 -- -- --

Later | Latest

Warning! This data is preliminary and subject to revision.

Download Data Now Download Data Now | Show DON Map | Plot DON Data | 1 Month DON Data | Real-Time DON Data | DON Info